Location: Newark
(44.4156°N, 12.1972°E)
Time: 03:15:15
(UTC+00:00)

STARLINK-1075 - Pass Details

Date: 31 January 2020
Orbit: 348 x 351 km, 53.0° (Epoch: 28 February)

Event Time Altitude Azimuth Distance (km) Brightness Sun altitude
Rises 18:27:36 0° 295° (WNW) 2,175 7.7 -23.2°
Reaches altitude 10° 18:29:50 10° 281° (W) 1,326 6.6 -23.6°
Enters shadow 18:31:54 23° 238° (WSW) 801 5.0 -24.0°
